#timestamp,LO_Frequency,Hit,StdDev 
1649098815.5,286047007.1,N
1649098835.4,286047007.1,N
1649098855.2,286047007.4,N
1649098875.0,286047007.1,N
1649098875.9,286047011.9,Y
1649098895.8,286047002.3,P
1649098915.6,286047000.7,N
1649098935.5,286047000.8,N
1649098955.3,286047001.0,N
1649098975.1,286047000.5,N
1649098995.9,286046999.8,N
1649099015.7,286046999.8,N
1649099035.5,286047001.1,N
1649099055.4,286047000.5,N
1649099075.2,286047001.1,N
1649099095.1,286047001.1,N
1649099096.0,286047001.1,N
1649099115.8,286047000.1,N
1649099135.6,286046998.2,N
1649099155.5,286046999.6,N
1649099175.3,286046997.3,N
1649099195.2,286046997.2,N
1649099215.9,286046995.2,N
1649099235.7,286046996.8,N
1649099255.6,286046996.6,N
1649099275.4,286046999.2,N
1649099295.3,286046996.8,N
1649099315.1,286046999.1,N
1649099335.9,286046999.2,N
1649099355.7,286046998.5,N
1649099375.5,286046998.1,N
1649099395.4,286047001.2,N
1649099415.2,286047002.4,N
1649099435.0,286047001.0,N
1649099435.9,286047001.0,N
1649099455.8,286047000.6,N
1649099475.6,286046998.2,N
1649099495.5,286047001.0,N
1649099515.3,286046998.5,N
1649099535.1,286046998.4,N
1649099555.9,286046998.5,N
1649099575.7,286046998.7,N
1649099595.6,286047000.2,N
1649099615.4,286047000.9,N
1649099635.2,286046999.9,N
1649099655.1,286046999.8,N
1649099656.0,286046999.8,N
1649099675.8,286046999.8,N
1649099695.7,286047000.0,N
1649099715.5,286047000.5,N
1649099735.3,286047000.0,N
1649099755.2,286047000.4,N
1649099775.9,286046998.5,N
1649099795.7,286046998.8,N
1649099815.6,286047002.6,N
1649099835.4,286047002.1,N
1649099855.3,286046999.8,N
1649099875.1,286047000.2,N
1649099876.0,286047000.2,N
1649099895.8,286047002.4,N
1649099915.7,286046999.9,N
1649099935.5,286047000.3,N
1649099955.3,286046998.2,N
1649099975.2,286047001.2,N
1649099995.0,286047001.0,N
1649099995.9,286047001.0,N
1649100015.8,286047000.6,N
1649100035.6,286047000.6,N
1649100055.4,286047000.8,N
1649100075.3,286046996.7,Y
1649100095.1,286046998.7,P
1649100115.9,286046998.5,N
1649100135.7,286046998.1,N
1649100155.5,286047000.7,N
1649100175.4,286047000.5,N
1649100195.2,286046998.6,N
1649100215.0,286046999.1,N
1649100215.9,286046999.1,N
1649100235.8,286046999.6,N
1649100255.6,286046999.5,N
1649100275.5,286046999.1,N
1649100295.3,286047000.7,N
1649100315.1,286046999.9,N
1649100335.9,286047000.2,N
1649100355.7,286046999.9,N
1649100375.5,286047001.8,N
1649100395.4,286046999.8,N
1649100415.2,286047000.0,N
1649100435.0,286047001.0,N
1649100436.0,286047001.0,N
1649100455.8,286047001.2,N
1649100475.6,286047000.4,N
1649100495.5,286047000.4,N
1649100515.3,286047000.3,N
1649100535.1,286047000.5,N
1649100555.9,286047000.5,N
1649100575.7,286047000.3,N
1649100595.5,286047001.2,N
1649100615.4,286047000.1,N
1649100635.2,286047002.3,N
1649100655.1,286046999.8,N
1649100656.0,286046999.8,N
1649100675.8,286046999.1,N
1649100725.7,286046998.3,E
1649100735.6,286046999.9,N
1649100755.4,286047002.1,P
1649100775.3,286047002.5,N
1649100795.1,286047001.6,N
1649100815.8,286047004.3,Y
1649100835.7,286046999.7,P
1649100855.5,286047001.9,N
1649100875.4,286047000.3,N
1649100895.2,286047000.0,N
1649100915.0,286047000.3,N
1649100915.9,286047000.3,N
1649100935.8,286047000.2,N
1649100955.6,286047002.2,Y
1649100975.5,286047000.4,P
1649100995.3,286047000.4,P
1649101015.1,286047000.6,P
1649101035.9,286046998.1,Y
1649101055.7,286047002.2,P
1649101075.6,286047001.4,N
1649101095.4,286047002.6,P
1649101115.2,286047000.0,N
1649101135.1,286046999.8,N
1649101136.0,286046999.8,N
1649101155.8,286047002.8,N
1649101175.7,286047000.3,N
1649101195.5,286047002.1,N
1649101215.3,286047000.3,N
1649101235.2,286047002.6,N
1649101255.0,286047002.3,N
1649101255.9,286047002.3,N
1649101275.7,286047001.3,N
1649101295.6,286047004.4,Y
1649101315.4,286047001.0,P
1649101335.3,286047000.7,P
1649101355.1,286047000.3,N
1649101356.0,286047000.3,N
1649101375.8,286047000.6,N
1649101395.7,286047000.7,N
1649101415.5,286047000.4,N
1649101435.3,286047001.0,N
1649101455.2,286047000.7,N
1649101475.0,286046998.1,Y
1649101475.9,286046998.1,P
1649101495.8,286047001.0,N
1649101515.6,286047000.2,N
1649101535.4,286047001.1,N
1649101555.3,286046998.5,N
1649101575.1,286047000.5,N
1649101595.9,286047000.8,N
1649101615.7,286047000.3,N
1649101635.5,286047000.5,N
1649101655.4,286047001.0,N
1649101675.2,286047001.0,N
1649101695.0,286047000.4,N
1649101695.9,286047000.4,N
1649101715.8,286046998.6,N
1649101735.6,286046999.1,N
1649101755.5,286046998.6,N
1649101775.3,286047001.2,N
1649101795.1,286046998.2,N
1649101815.9,286046996.6,Y
1649101835.7,286046996.6,P
1649101855.6,286046999.0,N
1649101875.4,286046998.9,N
1649101895.2,286046999.8,N
1649101915.1,286047001.1,N
1649101916.0,286047001.1,N
1649101935.8,286046998.6,N
1649101955.6,286046996.5,N
1649101975.5,286046998.9,N
1649101995.3,286047000.7,N
1649102015.2,286046998.9,N
1649102035.9,286046998.5,N
1649102055.7,286047001.1,N
1649102075.6,286046998.8,N
1649102095.4,286047000.0,N
1649102115.2,286047000.3,N
1649102135.1,286047000.3,N
1649102136.0,286047000.3,N
1649102155.8,286047002.7,N
1649102175.7,286047002.3,N
1649102195.5,286046999.8,N
1649102215.3,286047000.4,N
1649102235.2,286047002.3,N
1649102255.0,286047002.3,N
1649102255.9,286047002.3,N
1649102275.8,286047001.1,N
1649102295.6,286046999.7,N
1649102315.4,286047001.1,N
1649102335.3,286047001.2,N
1649102355.1,286046998.5,N
1649102375.8,286046998.8,N
1649102395.7,286046998.3,N
